STARLINK-5147, 53985

Orbit data source: Space-Track

STARLINK-5147, 53985 is a payload satellite owned by SpaceX/Seattle (US) in LEO that was launched on Wed, 05 Oct 2022 UTC via an FALCON 9 launch vehicle from the Air Force Western Test Range (AFWTR). Payload-class satellites include a variety of spacecraft equipped with specific instruments for various scientific and technological missions. These include communications satellites like Starlink; space stations such as the ISS; scientific satellites like the Hubble; Earth observation satellites from companies like Planet Labs, Umbra, and HawkEye 360; GPS; miniature CubeSats for education and research; and military/defense satellites.

Loading next visibility...
Identifier
53985, 2022-125X
Orbit
LEO
Country
Flag of USUS
Related business
Manufacturer
SpaceX/Seattle
Mission
Operational Commercial Communications
Bus & Motor
STARLINK, Unknown motor
Mass
305 kg wet, ~290 kg dry
Launch date (UTC)
2022-10-05 (4 years ago)
Launch vehicle
FALCON 9
Launch site
Air Force Western Test Range (AFWTR)
Object type
Payload
Rocket body
Debris
Shape & HBR
Box + 1 Pan, 10.1 m
Radar Cross Section
13.562 m², Large (>1 m²)

Expand to show TLE details & history
Last TLE update: 3 days ago

TLE from 3 days ago
0 STARLINK-5147
1 53985U 22125X   26170.26488340 -.00000416  00000-0 -80517-5 0  9992
2 53985  53.1610 118.2579 0001378  90.3344 269.7805 15.08834324204790
Epoch: 2026-06-19T06:21Z
TLE epoch observation values (Epoch: 2026-06-19T06:21:25.925Z)
Latitude
-0.00006°
Longitude
115.40349°
Altitude
540.656 km
Speed
7.593 km/s
True Right ascension
07h 53m 01s
True Declination
0° 00' 00"
Sunlit
Object was in daylight at epoch
Visualization orbit readout
Latitude
Unknown
Longitude
Unknown
Altitude
Unknown
Speed
Unknown
Apparent Right ascension
Unknown
Apparent Declination
Unknown
Sunlit
N/A
Visualization observer readout
Local Sidereal Time
21:31:06
Azimuth
Unknown
Elevation
Unknown
Doppler factor
Unknown
Orbital elements
Apogee altitude
540.968 km
Perigee altitude
539.061 km
Semi-major axis
6,918.152 km
Eccentricity
0.00014
Inclination
53.161°
RAAN
118.2579°
Arg. of periapsis
90.3344°
True anomaly
269.76471°
Mean anomaly
269.7805°
Eccentric anomaly
269.7726°
Mean motion
3.77188 °/min
Orbital period
95.44 mins
BSTAR
-0.0000080517
Loading maneuver chart data...
Computing Atmospheric mass density...
Loading historical data...
Loading historical data...
Loading historical data...
Loading historical data...
Loading historical data...
Loading historical data...
Loading historical data...

Documentation

Showing up to 5 results
|